Latest Weather Observations for Nullo Mountain

IDN60801

Issued at 2:32 am EST Saturday 5 September 2015 (issued every 30 minutes, with the page automatically refreshed every 10 minutes)

About weather observations | Map of weather stations | Latest weather observations for NSW | Other Formats
Station Details ID: 062100 Name: NULLO MOUNTAIN AWS Lat: -32.72 Lon: 150.23 Height: 1130.0 m
Data from the previous 72 hours. | See also: Recent months at Nullo Mountain
Date/Time
EST
Temp
°C
App
Temp
°C
Dew
Point
Rel
Hum
%
Delta-T
°C
Wind Press
QNH
hPa
Press
MSL
hPa
Rain
since 9 am
mm
Dir
 
Spd
km/h
Gust
km/h
Spd
kts
Gust
kts
05/02:30am 6.2 4.9 6.1 99 0.0 W 2 4 1 2 - - 0.2
05/02:00am 6.4 5.2 6.4 100 0.0 W 2 4 1 2 - - 0.2
05/01:30am 6.7 5.6 6.7 100 0.0 WNW 2 4 1 2 - - 0.0
05/01:00am 6.4 4.8 6.4 100 0.0 W 4 4 2 2 - - 0.0
05/12:30am 6.5 5.3 6.5 100 0.0 WNW 2 4 1 2 - - 0.0
05/12:00am 6.1 4.8 6.0 99 0.0 NNW 2 4 1 2 - - 0.0
 
Date/Time
EST
Temp
°C
App
Temp
°C
Dew
Point
Rel
Hum
%
Delta-T
°C
Wind Press
QNH
hPa
Press
MSL
hPa
Rain
since 9 am
mm
Dir
 
Spd
km/h
Gust
km/h
Spd
kts
Gust
kts
04/11:30pm 6.1 4.4 6.0 99 0.0 NW 4 6 2 3 - - 0.0
04/11:00pm 6.3 5.0 6.2 99 0.0 WNW 2 4 1 2 - - 0.0
04/10:30pm 6.5 4.5 6.4 99 0.0 NW 6 9 3 5 - - 0.0
04/10:00pm 6.5 5.3 6.4 99 0.0 WNW 2 6 1 3 - - 0.0
04/09:30pm 6.3 5.4 6.2 99 0.0 CALM 0 0 0 0 - - 0.0
04/09:00pm 7.2 5.8 7.1 99 0.0 SW 4 9 2 5 - - 0.0
04/08:30pm 6.7 5.2 6.6 99 0.0 NNW 4 6 2 3 - - 0.0
04/08:00pm 6.7 5.2 6.6 99 0.0 NNW 4 7 2 4 - - 0.0
04/07:30pm 7.1 5.1 7.0 99 0.0 NNW 7 11 4 6 - - 0.0
04/07:00pm 6.8 5.2 6.4 97 0.2 NNW 4 6 2 3 - - 0.0
04/06:30pm 7.2 5.3 6.9 98 0.1 NNW 6 9 3 5 - - 0.0
04/06:00pm 6.8 4.9 6.5 98 0.1 N 6 9 3 5 - - 0.0
04/05:30pm 7.8 6.0 7.1 95 0.3 N 6 7 3 4 - - 0.0
04/05:00pm 8.4 6.6 7.2 92 0.6 N 6 9 3 5 - - 0.0
04/04:30pm 8.7 6.9 7.0 89 0.8 N 6 9 3 5 - - 0.0
04/04:00pm 9.5 8.1 7.3 86 1.1 NNE 4 7 2 4 - - 0.0
04/03:30pm 9.1 8.6 7.7 91 0.7 CALM 0 4 0 2 - - 0.0
04/03:00pm 8.2 6.5 7.6 96 0.3 S 6 9 3 5 - - 0.0
04/02:30pm 8.3 6.3 7.1 92 0.6 SW 7 9 4 5 - - 0.0
04/02:00pm 9.2 8.2 7.5 89 0.9 ESE 2 6 1 3 - - 0.0
04/01:30pm 8.6 6.6 7.1 90 0.8 ESE 7 9 4 5 - - 0.0
04/01:00pm 8.6 6.8 7.1 90 0.8 E 6 9 3 5 - - 0.0
04/12:30pm 8.5 6.5 7.3 92 0.6 ESE 7 13 4 7 - - 0.0
04/12:00pm 8.3 6.1 7.7 96 0.3 ESE 9 17 5 9 - - 0.0
04/11:30am 7.7 5.8 7.6 99 0.1 ESE 7 15 4 8 - - 0.0
04/11:00am 7.5 4.0 7.4 99 0.0 ESE 15 22 8 12 - - 0.0
04/10:30am 7.4 4.7 7.3 99 0.0 SE 11 22 6 12 - - 0.0
04/10:00am 7.3 4.6 7.2 99 0.0 SE 11 22 6 12 - - 0.0
04/09:30am 7.1 3.6 7.0 99 0.0 SE 15 24 8 13 - - 0.0
04/09:00am 6.8 3.5 6.5 98 0.1 SE 13 22 7 12 - - 5.2
04/08:30am 7.0 3.7 6.3 95 0.3 SE 13 22 7 12 - - 5.2
04/08:00am 6.8 2.3 6.1 95 0.3 SE 19 28 10 15 - - 5.2
04/07:30am 6.4 2.3 6.0 97 0.2 ESE 17 35 9 19 - - 5.2
04/07:00am 6.3 1.8 5.9 97 0.2 ESE 19 32 10 17 - - 5.2
04/06:30am 6.3 1.5 5.6 95 0.3 ESE 20 32 11 17 - - 5.2
04/06:00am 6.4 1.6 5.5 94 0.4 SE 20 35 11 19 - - 5.2
04/05:30am 6.3 1.0 5.1 92 0.6 SE 22 37 12 20 - - 5.2
04/05:00am 6.1 0.4 4.7 91 0.7 SE 24 39 13 21 - - 5.2
04/04:30am 6.1 0.7 4.6 90 0.7 SE 22 37 12 20 - - 5.2
04/04:00am 5.7 1.2 4.2 90 0.7 SE 17 28 9 15 - - 5.2
04/03:30am 6.0 1.5 4.3 89 0.8 SSE 17 28 9 15 - - 5.2
04/03:00am 5.9 1.4 4.2 89 0.8 SSE 17 26 9 14 - - 5.2
04/02:30am 5.6 1.4 3.8 88 0.8 S 15 24 8 13 - - 5.2
04/02:00am 5.2 1.4 3.9 91 0.6 S 13 19 7 10 - - 5.2
04/01:30am 5.0 0.8 3.7 91 0.6 S 15 22 8 12 - - 5.2
04/01:00am 5.2 1.4 3.9 91 0.6 S 13 24 7 13 - - 5.2
04/12:30am 4.8 1.0 3.9 94 0.4 SSE 13 20 7 11 - - 5.2
04/12:00am 4.1 1.6 3.7 97 0.2 S 6 7 3 4 - - 5.2
 
Date/Time
EST
Temp
°C
App
Temp
°C
Dew
Point
Rel
Hum
%
Delta-T
°C
Wind Press
QNH
hPa
Press
MSL
hPa
Rain
since 9 am
mm
Dir
 
Spd
km/h
Gust
km/h
Spd
kts
Gust
kts
03/11:30pm 3.9 1.2 3.5 97 0.2 SW 7 13 4 7 - - 5.2
03/11:00pm 3.8 1.2 3.2 96 0.3 W 6 11 3 6 - - 5.2
03/10:30pm 4.1 1.5 3.4 95 0.3 WSW 6 11 3 6 - - 5.2
03/10:00pm 3.8 1.0 3.1 95 0.3 SW 7 11 4 6 - - 5.2
03/09:30pm 4.0 0.8 3.3 95 0.3 SW 9 19 5 10 - - 5.2
03/09:00pm 4.2 1.0 3.3 94 0.4 WSW 9 15 5 8 - - 5.2
03/08:30pm 4.7 1.6 3.7 93 0.4 WSW 9 19 5 10 - - 5.2
03/08:00pm 4.9 1.8 3.7 92 0.5 WSW 9 15 5 8 - - 5.2
03/07:30pm 4.9 1.8 3.7 92 0.5 WSW 9 17 5 9 - - 5.2
03/07:00pm 5.0 1.5 3.7 91 0.6 WSW 11 24 6 13 - - 5.2
03/06:30pm 5.2 1.8 4.0 92 0.5 WSW 11 20 6 11 - - 5.2
03/06:00pm 5.2 1.9 4.3 94 0.4 WSW 11 24 6 13 - - 5.2
03/05:30pm 5.4 1.3 4.5 94 0.4 W 15 24 8 13 - - 5.2
03/05:00pm 5.3 2.0 4.6 95 0.3 W 11 28 6 15 - - 5.2
03/04:30pm 5.4 1.4 5.0 97 0.2 W 15 26 8 14 - - 5.2
03/04:00pm 5.8 1.6 5.5 98 0.1 WSW 17 28 9 15 - - 5.0
03/03:30pm 6.0 2.6 5.9 99 0.0 W 13 30 7 16 - - 5.0
03/03:00pm 5.6 2.5 5.5 99 0.0 W 11 24 6 13 - - 5.0
03/02:30pm 4.9 0.9 4.8 99 0.0 W 15 32 8 17 - - 5.0
03/02:00pm 4.9 1.6 4.8 99 0.0 WSW 11 22 6 12 - - 4.6
03/01:30pm 5.4 2.2 5.3 99 0.0 W 11 22 6 12 - - 2.2
03/01:00pm 5.1 1.9 5.0 99 0.0 WNW 11 20 6 11 - - 2.0
03/12:30pm 4.8 0.4 4.5 98 0.1 WNW 17 33 9 18 - - 1.6
03/12:00pm 5.3 2.0 4.6 95 0.3 WNW 11 28 6 15 - - 1.0
03/11:30am 6.0 2.3 4.5 90 0.7 WNW 13 26 7 14 - - 0.4
03/11:00am 5.7 2.3 4.2 90 0.7 W 11 22 6 12 - - 0.4
03/10:30am 6.6 3.2 3.8 82 1.3 W 11 20 6 11 - - 0.0
03/10:00am 7.1 3.7 3.9 80 1.5 WNW 11 24 6 13 - - 0.0
03/09:30am 7.1 3.3 3.9 80 1.5 W 13 30 7 16 - - 0.0
03/09:00am 6.6 2.3 3.4 80 1.4 W 15 28 8 15 - - 6.8
03/08:30am 5.8 1.5 3.0 82 1.2 W 15 32 8 17 - - 6.8
03/08:00am 5.7 1.8 3.2 84 1.1 W 13 24 7 13 - - 6.8
03/07:30am 4.9 1.1 3.9 93 0.5 WNW 13 24 7 13 - - 6.8
03/07:00am 4.6 1.3 4.5 99 0.0 WNW 11 24 6 13 - - 6.8
03/06:30am 5.1 1.9 5.0 99 0.0 WNW 11 22 6 12 - - 6.8
03/06:00am 5.4 2.2 5.3 99 0.0 WNW 11 22 6 12 - - 6.8
03/05:30am 5.9 2.9 5.8 99 0.0 WNW 11 24 6 13 - - 6.8
03/05:00am 6.3 3.3 6.2 99 0.0 WNW 11 22 6 12 - - 6.8
03/04:30am 6.9 3.7 6.9 100 0.0 NW 13 26 7 14 - - 6.8
03/04:00am 7.4 3.9 7.4 100 0.0 NW 15 28 8 15 - - 6.8
03/03:30am 7.7 3.9 7.7 100 0.0 NNW 17 26 9 14 - - 6.8
03/03:00am 8.0 5.1 8.0 100 0.0 NW 13 22 7 12 - - 6.8
03/02:30am 8.0 4.3 8.0 100 0.0 NW 17 32 9 17 - - 6.8
03/02:00am 8.1 3.9 8.1 100 0.0 NW 20 43 11 23 - - 6.8
03/01:30am 8.1 3.1 8.1 100 0.0 NW 24 46 13 25 - - 6.8
03/01:00am 7.7 1.4 7.6 99 0.1 NNW 30 50 16 27 - - 6.6
03/12:53am 7.7 1.8 7.6 99 0.1 NNW 28 48 15 26 - - 6.6
03/12:30am 7.6 1.7 7.3 98 0.1 NNW 28 41 15 22 - - 6.6
03/12:18am 7.6 1.6 7.0 96 0.3 NNW 28 46 15 25 - - 5.6
03/12:00am 7.0 2.8 5.9 93 0.5 N 17 28 9 15 - - 4.2
 
Date/Time
EST
Temp
°C
App
Temp
°C
Dew
Point
Rel
Hum
%
Delta-T
°C
Wind Press
QNH
hPa
Press
MSL
hPa
Rain
since 9 am
mm
Dir
 
Spd
km/h
Gust
km/h
Spd
kts
Gust
kts
02/11:30pm 6.9 2.6 5.2 89 0.8 N 17 30 9 16 - - 3.2
02/11:00pm 7.5 3.0 4.3 80 1.5 NNW 17 24 9 13 - - 1.6
02/10:30pm 10.2 6.1 2.1 57 3.7 NNE 13 20 7 11 - - 0.0
02/10:00pm 10.4 5.8 1.8 55 3.9 NNE 15 24 8 13 - - 0.0
02/09:30pm 10.0 5.3 1.1 54 3.9 NNE 15 28 8 15 - - 0.0
02/09:00pm 9.7 4.7 1.4 56 3.7 NNE 17 28 9 15 - - 0.0
02/08:30pm 9.7 4.4 1.6 57 3.6 NNE 19 33 10 18 - - 0.0
02/08:00pm 9.8 4.9 1.9 58 3.6 NNE 17 26 9 14 - - 0.0
02/07:30pm 9.5 4.6 2.1 60 3.3 NNE 17 30 9 16 - - 0.0
02/07:00pm 9.7 5.7 2.6 61 3.2 NNE 13 20 7 11 - - 0.0
02/06:30pm 9.4 6.3 3.4 66 2.8 NNE 9 17 5 9 - - 0.0
02/06:00pm 9.5 5.9 3.0 64 3.0 NNE 11 19 6 10 - - 0.0
02/05:30pm 9.6 6.8 2.9 63 3.1 NNE 7 13 4 7 - - 0.0
02/05:00pm 9.9 7.0 2.7 61 3.3 N 7 13 4 7 - - 0.0
02/04:30pm 11.2 7.4 2.0 53 4.2 NNW 11 17 6 9 - - 0.0
02/04:00pm 12.1 8.5 0.8 46 5.1 NNW 9 17 5 9 - - 0.0
02/03:30pm 12.7 8.9 -0.5 40 5.8 NW 9 19 5 10 - - 0.0
02/03:00pm 13.0 8.8 1.7 46 5.2 NW 13 20 7 11 - - 0.0
02/02:30pm 13.5 10.0 1.2 43 5.6 NW 9 17 5 9 - - 0.0
02/02:00pm 13.0 9.8 1.0 44 5.4 NNW 7 13 4 7 - - 0.0
02/01:30pm 11.7 7.9 -0.8 42 5.4 NW 9 20 5 11 - - 0.0
02/01:00pm 11.9 8.2 0.1 44 5.2 NW 9 19 5 10 - - 0.0
02/12:30pm 11.8 7.6 -0.7 42 5.4 NW 11 19 6 10 - - 0.0
02/12:00pm 11.4 8.2 0.5 47 4.8 NW 7 13 4 7 - - 0.0
02/11:30am 10.6 7.0 0.3 49 4.5 NW 9 17 5 9 - - 0.0
02/11:00am 10.7 7.4 0.4 49 4.5 NNW 7 11 4 6 - - 0.0
02/10:30am 9.3 5.6 0.0 52 4.0 NW 9 15 5 8 - - 0.0
02/10:00am 8.3 4.6 -2.9 45 4.4 NW 7 13 4 7 - - 0.0
02/09:30am 8.1 4.0 -3.1 45 4.4 NW 9 17 5 9 - - 0.0
02/09:00am 8.7 5.5 -7.0 32 5.7 W 2 6 1 3 - - 0.0
02/08:30am 7.6 4.3 -8.0 32 5.4 WSW 2 6 1 3 - - 0.0
02/08:00am 6.2 3.4 -3.2 51 3.6 W 2 4 1 2 - - 0.0
02/07:30am 5.4 2.0 -5.6 45 3.9 NW 4 7 2 4 - - 0.0
02/07:00am 4.5 0.9 -7.3 42 4.0 WNW 4 7 2 4 - - 0.0
02/06:30am 3.6 -0.1 -4.3 56 2.9 W 6 6 3 3 - - 0.0
02/06:00am 2.8 -0.1 -1.4 74 1.6 WSW 4 7 2 4 - - 0.0
02/05:30am 3.3 0.5 -0.7 75 1.6 W 4 6 2 3 - - 0.0
02/05:00am 2.9 -0.3 -0.2 80 1.2 WNW 6 7 3 4 - - 0.0
02/04:30am 2.9 -0.3 -0.2 80 1.2 W 6 7 3 4 - - 0.0
02/04:00am 3.3 0.1 0.5 82 1.1 WSW 7 11 4 6 - - 0.0
02/03:30am 3.2 0.2 0.9 85 0.9 WSW 6 9 3 5 - - 0.0
02/03:00am 3.2 -0.3 1.1 86 0.9 W 9 17 5 9 - - 0.0

Other Formats:

Comma delimited format used in spreadsheet applications
http://www.bom.gov.au/fwo/IDN60801/IDN60801.94754.axf

JavaScript Object Notation format (JSON) in row-major order
http://www.bom.gov.au/fwo/IDN60801/IDN60801.94754.json